Location: UMBC
(39.2555°N, 76.7093°W)
Time: 03:34:07
(UTC+01:00)

Amateur Radio Satellites - All Passes

Search period start: 23 February 2017 03:04
Search period end: 24 February 2017 03:04
Location: UMBC, 39.2555°N, 76.7093°W

Satellite Date Start Highest point End Downlink Frequencies (MHz)
Time Altitude Azimuth
ZACube-1 23 Feb 03:13:12 03:16:25 20° 267° (W) 03:19:42 437.345
FO-29 23 Feb 03:15:36 03:19:08 14° 84° (E) 03:22:31 435.910
YUBILEINY 23 Feb 03:24:43 03:33:16 55° 77° (ENE) 03:41:43 435.215
DELFI C3 23 Feb 03:40:49 03:44:22 31° 263° (W) 03:47:55 145.870
PRISM 23 Feb 03:44:12 03:48:17 88° 285° (WNW) 03:52:21 437.425
SO-50 23 Feb 04:03:33 04:07:30 27° 113° (ESE) 04:11:25 436.795
ESTCUBE 1 23 Feb 04:07:46 04:11:45 31° 70° (ENE) 04:15:44 437.505/2401.250
RS-15 23 Feb 04:10:57 04:19:26 20° 352° (N) 04:27:57 29.354- 29.394
UNISAT 6 23 Feb 04:34:51 04:39:31 64° 285° (WNW) 04:44:08 437.425
TIGRISAT 23 Feb 04:36:04 04:40:46 67° 285° (WNW) 04:45:23 435.000
EO-79 23 Feb 04:38:15 04:38:50 10° 90° (E) 04:39:25 145.935-145.965
VELOX 1 23 Feb 04:46:26 04:50:05 27° 69° (ENE) 04:53:46 145.980
DX 1 23 Feb 04:49:43 04:51:44 13° 63° (ENE) 04:53:44 434.975-435.025
POLYITAN 1 23 Feb 04:52:53 04:55:37 16° 93° (E) 04:58:18 437.675
NANOSAT C BR1 23 Feb 04:55:19 04:57:55 16° 93° (E) 05:00:31 145.865
O/OREOS (USA 219) 23 Feb 04:55:19 04:59:40 53° 107° (ESE) 05:04:03 437.305
QB50P2 23 Feb 04:55:26 04:58:29 19° 94° (E) 05:01:31 145.880/145.840
AIST 2D 23 Feb 04:56:32 04:59:37 27° 96° (E) 05:02:41 435.315
FO-29 23 Feb 04:57:32 05:05:19 82° 102° (ESE) 05:12:21 435.910
UKube-1 23 Feb 05:07:24 05:09:45 15° 64° (ENE) 05:12:07 .
SPROUT 23 Feb 05:16:12 05:20:14 44° 73° (ENE) 05:24:18 437.525
YUBILEINY 23 Feb 05:22:18 05:29:32 31° 276° (W) 05:36:45 435.215
BUGSAT 1 23 Feb 05:38:25 05:40:51 15° 93° (E) 05:43:15 437.445
SO-50 23 Feb 05:43:35 05:47:51 34° 309° (NW) 05:52:04 436.795
ESTCUBE 1 23 Feb 05:44:58 05:48:33 23° 265° (W) 05:52:09 437.505/2401.250
JUGNU 23 Feb 05:58:02 05:59:19 11° 180° (S) 06:00:36 437.505
50 SAT 23 Feb 05:58:29 06:01:57 58° 260° (W) 06:05:25 437.505
DUCHIFAT 1 23 Feb 06:03:20 06:07:38 88° 114° (ESE) 06:11:53 145.980
EO-79 23 Feb 06:10:44 06:14:58 63° 286° (WNW) 06:19:11 145.935-145.965
VELOX 1 23 Feb 06:22:50 06:26:28 25° 264° (W) 06:30:07 145.980
DX 1 23 Feb 06:23:11 06:27:25 56° 259° (W) 06:31:41 434.975-435.025
POLYITAN 1 23 Feb 06:27:30 06:31:32 40° 288° (WNW) 06:35:33 437.675
RS-15 23 Feb 06:27:49 06:38:00 28° 28° (NNE) 06:47:54 29.354- 29.394
NANOSAT C BR1 23 Feb 06:29:46 06:33:48 41° 288° (WNW) 06:37:48 145.865
AIST 2D 23 Feb 06:30:21 06:32:37 16° 292° (WNW) 06:34:53 435.315
QB50P2 23 Feb 06:30:27 06:34:21 35° 289° (WNW) 06:38:14 145.880/145.840
PCSat 23 Feb 06:34:19 06:37:55 18° 45° (NE) 06:41:30 145.827
O/OREOS (USA 219) 23 Feb 06:36:44 06:39:24 15° 305° (NW) 06:42:05 437.305
UKube-1 23 Feb 06:41:12 06:45:22 49° 260° (W) 06:49:33 .
FO-29 23 Feb 06:43:56 06:49:17 21° 302° (WNW) 06:54:23 435.910
SPROUT 23 Feb 06:53:59 06:56:22 15° 268° (W) 06:58:44 437.525
BUGSAT 1 23 Feb 07:12:22 07:16:23 43° 287° (WNW) 07:20:25 437.445
ITUPSAT 1 23 Feb 07:12:52 07:16:40 24° 67° (ENE) 07:20:29 437.325
BEESAT 23 Feb 07:21:04 07:25:09 29° 68° (ENE) 07:29:16 436.000
Oscar 19 23 Feb 07:34:31 07:39:39 73° 103° (ESE) 07:44:46 437.125/150
Gurwin Techsat 1B 23 Feb 07:56:44 08:02:03 65° 102° (ESE) 08:07:19 435.225
AO-7 23 Feb 08:03:43 08:07:25 13° 89° (E) 08:11:04 .
ITAMSAT 1 23 Feb 08:04:25 08:06:32 12° 90° (E) 08:08:40 435.822/435.867
MOZHAYETS 4 23 Feb 08:06:57 08:10:55 29° 69° (ENE) 08:14:53
PCSat 23 Feb 08:16:29 08:21:55 76° 244° (WSW) 08:27:19 145.827
SRMSAT 23 Feb 08:39:56 08:41:32 11° 181° (S) 08:43:08 437.500
RS-15 23 Feb 08:40:40 08:53:04 75° 56° (NE) 09:04:53 29.354- 29.394
ITUPSAT 1 23 Feb 08:49:54 08:54:17 35° 262° (W) 08:58:43 437.325
KKS-1 23 Feb 08:58:23 09:02:02 26° 68° (ENE) 09:05:42 437.445
BEESAT 23 Feb 08:58:45 09:02:51 28° 264° (W) 09:06:59 436.000
CUBESAT XI-V 23 Feb 09:00:02 09:02:58 17° 65° (ENE) 09:05:54 437.345
Oscar 19 23 Feb 09:15:49 09:18:19 14° 299° (WNW) 09:20:50 437.125/150
M-CUBED/EXP-1 PRIME 23 Feb 09:28:58 09:31:03 16° 64° (ENE) 09:33:07 437.505
Gurwin Techsat 1B 23 Feb 09:38:12 09:41:25 16° 298° (WNW) 09:44:38 435.225
STARS 23 Feb 09:39:52 09:43:44 32° 70° (ENE) 09:47:37 437.465
ITAMSAT 1 23 Feb 09:41:17 09:46:31 74° 286° (WNW) 09:51:43 435.822/435.867
MOZHAYETS 4 23 Feb 09:44:05 09:48:00 27° 265° (W) 09:51:57
AO-85 23 Feb 09:47:03 09:50:14 18° 112° (ESE) 09:53:16 145.980
AO-7 23 Feb 09:53:00 10:01:21 78° 106° (ESE) 10:09:38 .
KKS-1 23 Feb 10:34:44 10:38:29 27° 264° (W) 10:42:16 437.445
CUBESAT XI-V 23 Feb 10:35:25 10:39:56 49° 261° (W) 10:44:28 437.345
RS-15 23 Feb 10:54:29 11:04:20 31° 258° (WSW) 11:13:53 29.354- 29.394
M-CUBED/EXP-1 PRIME 23 Feb 11:02:38 11:05:23 24° 258° (WSW) 11:08:06 437.505
STARS 23 Feb 11:16:47 11:20:06 21° 265° (W) 11:23:27 437.465
LilacSat-2 23 Feb 11:18:22 11:20:28 14° 92° (E) 11:22:32 437.200
AO-85 23 Feb 11:26:01 11:30:23 44° 305° (NW) 11:34:28 145.980
NUDT-PHONESAT 23 Feb 11:26:07 11:27:58 13° 92° (E) 11:29:48 437.300
STRAND 1 23 Feb 11:34:23 11:38:05 20° 64° (ENE) 11:41:49 437.568
AO-7 23 Feb 11:47:02 11:53:14 24° 305° (NW) 11:59:26 .
CUTE-I 23 Feb 12:09:28 12:14:43 51° 100° (E) 12:19:56 437.470
KAITUO 1B 23 Feb 12:20:11 12:23:58 67° 102° (ESE) 12:27:40 145.475/437.950
XW-2F 23 Feb 12:20:30 12:24:21 83° 105° (ESE) 12:28:08 145.980 - 146.000
DOVE 4 23 Feb 12:23:00 12:27:41 88° 276° (W) 12:32:37 437.250
XW-2D 23 Feb 12:23:31 12:27:22 85° 281° (W) 12:31:10 145.860 - 145.880
XW-2B 23 Feb 12:28:31 12:32:21 76° 283° (WNW) 12:36:08 145.730 - 145.750
BEESAT 3 23 Feb 12:31:22 12:35:08 51° 117° (ESE) 12:39:00 437.485
SO-50 23 Feb 12:35:45 12:39:07 20° 46° (NE) 12:42:27 436.795
XW-2C 23 Feb 12:37:05 12:40:53 57° 285° (WNW) 12:44:36 145.795 - 145.815
LilacSat-2 23 Feb 12:51:20 12:54:53 36° 287° (WNW) 12:58:24 437.200
NUDT-PHONESAT 23 Feb 12:58:34 13:02:03 37° 287° (WNW) 13:05:31 437.300
BEESAT 2 23 Feb 13:03:53 13:07:39 47° 117° (ESE) 13:11:29 435.950
STRAND 1 23 Feb 13:11:57 13:16:53 47° 260° (W) 13:21:52 437.568
HO-68 23 Feb 13:13:41 13:20:24 42° 99° (E) 13:27:04 435.675
XW-2A 23 Feb 13:18:36 13:22:03 64° 101° (ESE) 13:25:29 145.665 - 145.685
AAUSAT CUBESAT 2 23 Feb 13:24:56 13:27:04 14° 92° (E) 13:29:12 437.432
SEEDS 23 Feb 13:26:41 13:30:25 31° 97° (E) 13:34:06 437.485
CUTE-I 23 Feb 13:50:28 13:54:21 21° 296° (WNW) 13:58:14 437.470
CUBEBUG 2 23 Feb 13:51:27 13:55:59 43° 98° (E) 14:00:28 437.445
CUTE 1.7 + AOD 2 23 Feb 13:59:48 14:03:59 67° 285° (WNW) 14:08:09 437.475
ISS 23 Feb 14:07:13 14:10:11 32° 135° (SE) 14:13:11 437.550
BEESAT 3 23 Feb 14:10:40 14:13:03 15° 315° (NW) 14:15:28 437.485
AO-73 23 Feb 14:15:28 14:19:13 25° 95° (E) 14:22:55 145.935
SO-50 23 Feb 14:15:29 14:19:49 47° 243° (WSW) 14:24:06 436.795
Oscar 11 23 Feb 14:25:23 14:29:03 27° 96° (E) 14:32:42 .
PRISM 23 Feb 14:32:07 14:36:06 54° 74° (ENE) 14:40:05 437.425
UWE-3 23 Feb 14:34:08 14:38:51 77° 102° (ESE) 14:43:28 435.000/436.395/437.385
YUBILEINY 23 Feb 14:36:43 14:37:27 10° 73° (ENE) 14:38:10 435.215
Tancredo 1 23 Feb 14:38:33 14:41:48 76° 140° (SE) 14:45:04 437.200
BEESAT 2 23 Feb 14:43:04 14:45:40 17° 314° (NW) 14:48:19 435.950
AAUSAT CUBESAT 2 23 Feb 14:58:51 15:02:44 42° 287° (WNW) 15:06:36 437.432
ZACube-1 23 Feb 15:00:58 15:05:35 89° 111° (ESE) 15:10:05 437.345
HO-68 23 Feb 15:01:35 15:07:58 37° 296° (WNW) 15:14:21 435.675
SEEDS 23 Feb 15:02:49 15:05:53 20° 292° (WNW) 15:08:56 437.485
O/OREOS (USA 219) 23 Feb 15:06:07 15:10:43 86° 74° (ENE) 15:15:18 437.305
FO-29 23 Feb 15:07:35 15:13:51 36° 64° (ENE) 15:20:36 435.910
DELFI C3 23 Feb 15:18:41 15:22:13 31° 97° (E) 15:25:43 145.870
CUBEBUG 2 23 Feb 15:28:51 15:32:15 20° 294° (WNW) 15:35:39 437.445
UNISAT 6 23 Feb 15:32:06 15:36:33 84° 256° (WSW) 15:41:10 437.425
TIGRISAT 23 Feb 15:33:10 15:37:37 88° 259° (W) 15:42:13 435.000
ISS 23 Feb 15:43:44 15:46:39 29° 331° (NNW) 15:49:36 437.550
POLYITAN 1 23 Feb 15:45:58 15:47:20 11° 63° (ENE) 15:48:42 437.675
NANOSAT C BR1 23 Feb 15:48:09 15:49:11 11° 63° (ENE) 15:50:12 145.865
QB50P2 23 Feb 15:48:10 15:50:08 13° 64° (ENE) 15:52:06 145.880/145.840
AO-73 23 Feb 15:51:28 15:55:24 29° 291° (WNW) 15:59:16 145.935
Oscar 11 23 Feb 16:01:33 16:05:04 25° 291° (WNW) 16:08:35 .
PRISM 23 Feb 16:10:41 16:11:41 11° 269° (W) 16:12:42 437.425
UWE-3 23 Feb 16:13:12 16:14:36 11° 298° (WNW) 16:15:59 435.000/436.395/437.385
Tancredo 1 23 Feb 16:16:04 16:18:25 18° 338° (NNW) 16:20:45 437.200
YUBILEINY 23 Feb 16:23:42 16:32:23 66° 92° (E) 16:41:04 435.215
FO-29 23 Feb 16:51:59 16:58:33 46° 263° (W) 17:05:51 435.910
DUCHIFAT 1 23 Feb 16:53:43 16:57:48 54° 74° (ENE) 17:01:56 145.980
DELFI C3 23 Feb 16:54:07 16:56:46 18° 292° (WNW) 16:59:24 145.870
EO-79 23 Feb 17:01:33 17:05:46 82° 77° (ENE) 17:10:02 145.935-145.965
AIST 2D 23 Feb 17:02:21 17:05:48 50° 261° (W) 17:09:18 435.315
Oscar 19 23 Feb 17:15:02 17:16:48 12° 60° (ENE) 17:18:33 437.125/150
POLYITAN 1 23 Feb 17:18:22 17:22:32 63° 259° (W) 17:26:47 437.675
NANOSAT C BR1 23 Feb 17:20:09 17:24:18 66° 259° (WSW) 17:28:32 145.865
QB50P2 23 Feb 17:21:18 17:25:26 53° 260° (W) 17:29:36 145.880/145.840
ISS 23 Feb 17:23:01 17:23:58 11° 351° (N) 17:24:55 437.550
ESTCUBE 1 23 Feb 17:37:12 17:41:42 80° 101° (ESE) 17:46:10 437.505/2401.250
Gurwin Techsat 1B 23 Feb 17:41:01 17:42:53 12° 59° (ENE) 17:44:45 435.225
BUGSAT 1 23 Feb 18:00:28 18:04:29 74° 258° (WSW) 18:08:35 437.445
DX 1 23 Feb 18:12:37 18:16:16 26° 96° (E) 18:19:53 434.975-435.025
VELOX 1 23 Feb 18:12:47 18:17:10 62° 101° (ESE) 18:21:32 145.980
AO-85 23 Feb 18:19:34 18:21:04 12° 43° (NE) 18:22:34 145.980
YUBILEINY 23 Feb 18:22:44 18:29:49 27° 292° (WNW) 18:36:57 435.215
UKube-1 23 Feb 18:29:22 18:33:05 28° 97° (E) 18:36:47 .
DUCHIFAT 1 23 Feb 18:32:21 18:33:48 12° 269° (W) 18:35:15 145.980
SPROUT 23 Feb 18:38:21 18:42:41 81° 283° (WNW) 18:46:59 437.525
Oscar 19 23 Feb 18:50:11 18:55:21 86° 258° (WSW) 19:00:32 437.125/150
50 SAT 23 Feb 18:57:24 19:00:44 43° 286° (WNW) 19:04:01 437.505
ISS 23 Feb 19:00:26 19:01:39 12° 11° (NNE) 19:02:51 437.550
AO-7 23 Feb 19:01:10 19:07:01 22° 53° (NE) 19:12:53 .
Gurwin Techsat 1B 23 Feb 19:16:43 19:22:02 89° 256° (WSW) 19:27:22 435.225
ITAMSAT 1 23 Feb 19:20:46 19:24:19 19° 63° (ENE) 19:27:54 435.822/435.867
Tancredo 1 23 Feb 19:31:16 19:33:10 15° 18° (NNE) 19:35:04 437.200
DX 1 23 Feb 19:48:43 19:52:22 26° 291° (WNW) 19:56:00 434.975-435.025
VELOX 1 23 Feb 19:51:15 19:53:04 12° 297° (WNW) 19:54:54 145.980
AO-85 23 Feb 19:58:01 20:01:54 71° 241° (WSW) 20:05:52 145.980
UKube-1 23 Feb 20:05:31 20:08:59 24° 292° (WNW) 20:12:27 .
ISS 23 Feb 20:35:50 20:38:53 34° 31° (NNE) 20:41:54 437.550
BEESAT 3 23 Feb 20:49:26 20:52:43 23° 49° (NE) 20:55:58 437.485
AO-7 23 Feb 20:50:22 20:58:45 87° 252° (WSW) 21:07:11 .
ITUPSAT 1 23 Feb 20:50:50 20:55:37 63° 101° (ESE) 21:00:20 437.325
ITAMSAT 1 23 Feb 20:58:17 21:03:21 53° 260° (W) 21:08:28 435.822/435.867
BEESAT 23 Feb 20:58:55 21:03:43 79° 102° (ESE) 21:08:30 436.000
Tancredo 1 23 Feb 21:06:45 21:09:58 67° 38° (NE) 21:13:08 437.200
PCSat 23 Feb 21:16:13 21:19:22 16° 104° (ESE) 21:22:30 145.827
BEESAT 2 23 Feb 21:22:49 21:26:04 22° 49° (NE) 21:29:17 435.950
MOZHAYETS 4 23 Feb 21:39:10 21:43:48 77° 103° (ESE) 21:48:22
ISS 23 Feb 22:12:29 22:15:15 25° 227° (SW) 22:17:59 437.550
KKS-1 23 Feb 22:25:41 22:30:07 59° 101° (E) 22:34:31 437.445
BEESAT 3 23 Feb 22:26:47 22:30:20 30° 246° (WSW) 22:33:50 437.485
ITUPSAT 1 23 Feb 22:30:23 22:32:53 14° 298° (WNW) 22:35:22 437.325
CUBESAT XI-V 23 Feb 22:32:51 22:37:14 43° 98° (E) 22:41:35 437.345
BEESAT 23 Feb 22:39:15 22:40:49 11° 299° (WNW) 22:42:22 436.000
M-CUBED/EXP-1 PRIME 23 Feb 22:41:17 22:43:46 16° 100° (E) 22:46:21 437.505
Tancredo 1 23 Feb 22:44:45 22:45:49 11° 232° (SW) 22:46:53 437.200
AO-7 23 Feb 22:47:44 22:52:31 16° 269° (W) 22:57:20 .
PCSat 23 Feb 22:56:46 23:02:08 66° 300° (WNW) 23:07:33 145.827
KAITUO 1B 23 Feb 22:59:25 23:02:36 26° 71° (ENE) 23:05:49 145.475/437.950
BEESAT 2 23 Feb 23:00:14 23:03:53 33° 246° (WSW) 23:07:31 435.950
XW-2F 23 Feb 23:00:22 23:03:48 32° 72° (ENE) 23:07:15 145.980 - 146.000
RS-15 23 Feb 23:01:30 23:12:48 54° 110° (ESE) 23:24:32 29.354- 29.394
XW-2D 23 Feb 23:03:34 23:07:07 37° 73° (ENE) 23:10:42 145.860 - 145.880
STARS 23 Feb 23:05:40 23:10:07 73° 103° (ESE) 23:14:31 437.465
XW-2B 23 Feb 23:08:29 23:12:06 41° 73° (ENE) 23:15:45 145.730 - 145.750
XW-2C 23 Feb 23:16:52 23:20:37 54° 75° (ENE) 23:24:25 145.795 - 145.815
MOZHAYETS 4 23 Feb 23:19:05 23:20:16 11° 298° (WNW) 23:21:27
DOVE 4 23 Feb 23:27:50 23:31:58 81° 77° (ENE) 23:36:08 437.250
CUTE-I 23 Feb 23:30:10 23:35:27 75° 74° (ENE) 23:40:49 437.470
LilacSat-2 23 Feb 23:31:22 23:35:13 88° 78° (ENE) 23:39:08 437.200
NUDT-PHONESAT 23 Feb 23:36:16 23:40:00 79° 77° (ENE) 23:43:48 437.300
HO-68 23 Feb 23:41:48 23:47:43 29° 61° (ENE) 23:53:38 435.675
XW-2A 23 Feb 23:49:52 23:52:12 17° 69° (ENE) 23:54:32 145.665 - 145.685
KKS-1 24 Feb 00:04:02 00:06:10 13° 297° (WNW) 00:08:17 437.445
CUBESAT XI-V 24 Feb 00:11:09 00:14:15 18° 294° (WNW) 00:17:22 437.345
M-CUBED/EXP-1 PRIME 24 Feb 00:14:51 00:18:15 34° 292° (WNW) 00:21:53 437.505
SEEDS 24 Feb 00:17:44 00:20:49 20° 68° (ENE) 00:23:53 437.485
KAITUO 1B 24 Feb 00:33:49 00:36:36 19° 266° (W) 00:39:25 145.475/437.950
XW-2F 24 Feb 00:35:36 00:38:01 16° 267° (W) 00:40:27 145.980 - 146.000
XW-2D 24 Feb 00:39:25 00:41:27 14° 268° (W) 00:43:30 145.860 - 145.880
STARS 24 Feb 00:44:41 00:45:50 11° 298° (WNW) 00:46:58 437.465
PCSat 24 Feb 00:44:43 00:46:36 12° 320° (NW) 00:48:29 145.827
XW-2B 24 Feb 00:44:49 00:46:30 12° 269° (W) 00:48:11 145.730 - 145.750
CUBEBUG 2 24 Feb 00:48:33 00:52:22 30° 69° (ENE) 00:56:19 437.445
CUTE 1.7 + AOD 2 24 Feb 00:50:46 00:55:02 73° 76° (ENE) 00:59:18 437.475
AO-73 24 Feb 01:10:20 01:13:20 18° 66° (ENE) 01:16:22 145.935
CUTE-I 24 Feb 01:13:50 01:16:03 12° 270° (W) 01:18:15 437.470
RS-15 24 Feb 01:13:57 01:25:29 50° 314° (NW) 01:37:25 29.354- 29.394
Oscar 11 24 Feb 01:19:33 01:22:38 19° 67° (ENE) 01:25:43 .
XW-2A 24 Feb 01:22:05 01:24:49 22° 264° (W) 01:27:33 145.665 - 145.685
STRAND 1 24 Feb 01:23:14 01:28:22 64° 102° (ESE) 01:33:27 437.568
HO-68 24 Feb 01:28:02 01:35:02 55° 259° (WSW) 01:42:03 435.675
UWE-3 24 Feb 01:29:39 01:33:56 52° 73° (ENE) 01:38:22 435.000/436.395/437.385
AAUSAT CUBESAT 2 24 Feb 01:47:09 01:51:19 79° 259° (WSW) 01:55:29 437.432
SEEDS 24 Feb 01:52:26 01:56:16 33° 263° (W) 02:00:06 437.485
ZACube-1 24 Feb 01:55:09 01:59:29 59° 74° (ENE) 02:03:57 437.345
DELFI C3 24 Feb 02:03:58 02:06:32 17° 67° (ENE) 02:09:05 145.870
CUBEBUG 2 24 Feb 02:25:26 02:28:58 24° 266° (W) 02:32:36 437.445
YUBILEINY 24 Feb 02:35:48 02:43:15 30° 70° (ENE) 02:50:37 435.215
AO-73 24 Feb 02:45:01 02:49:12 42° 262° (W) 02:53:30 145.935
Oscar 11 24 Feb 02:54:28 02:58:29 36° 262° (W) 03:02:32 .
